COSMOS 2514 (751) (41330 NORAD) Tracking and Keplerian Element Data

This shows tracking and keplerian element data for the satellite.

Feedback or suggestion? Click here.




ElementValue
Catalog41330
NameCOSMOS 2514 (751)
Epoch Orbit7000
Epoch Day34.93051562
Epoch Year2025
RAAN330.0589
Inclination65.3006
Eccentricity0.0009884
Argument of Perigee221.2741
Mean Anonmoly138.6701
Mean Motion2.13102469
Decay Rate-6.5E-07
L11 41330U 16008A 25034.93051562 -.00000065 00000+0 00000+0 0 9991
L22 41330 65.3006 330.0589 0009884 221.2741 138.6701 2.13102469 70000



Live tracking and technical data element details for COSMOS 2514 (751) (NORAD 41330). COSMOS 2514 (751) can be tracked NOW for your location showing map with azimuth and elevation plus other details from your city location.







IsCatalogInMostPopularTable: catalog: 41330, numindb: 560
Update: records affected: 1



GetName: 41330 COSMOS 2514 (751)

Hit Count: updated at: Sat, 24 May 2025 16:35:21 GMT